User: anonymous
Location: Unspecified
(0.0000°N, 0.0000°E)
Time: 13:39:57
(UTC+00:00)
Language:

METEOR-M - Orbit

View from above orbital plane
View from above orbital plane
View from above satellite
View from above satellite

Ground track
Ground track

The orbit data is extracted from the following two-line orbital elements,

1 35865U 09049A   14250.48450817  .00000012  00000-0  53323-5 0  8395
2 35865 098.5449 295.3728 0002030 210.3880 149.7840 14.21927728258035
Epoch (UTC): 07 September 2014 11:37:41
Eccentricity: 0.0002030
inclination: 98.5449°
perigee height: 817 km
apogee height: 820 km
right ascension of ascending node: 295.3728°
argument of perigee: 210.3880°
revolutions per day: 14.21927728
mean anomaly at epoch: 149.7840°
orbit number at epoch: 25803

The dashed part of the orbit path shows where the satellite is in the earth's shadow,  

DLR